Time,TemperatureF,DewpointF,PressureIn,WindDirection,WindDirectionDegrees,WindSpeedMPH,WindSpeedGustMPH,Humidity,HourlyPrecipIn,Conditions,Clouds,dailyrainin,SoftwareType,DateUTC
2013-01-27 00:05:00,55.0,52.7,29.85,North,359,0.0,8.0,92,0.00,,,0.00,Wunderground v.1.15,2013-01-27 07:05:00,
2013-01-27 00:15:00,54.8,52.5,29.82,North,359,0.0,8.0,92,0.00,,,0.00,Wunderground v.1.15,2013-01-27 07:15:00,
2013-01-27 00:20:00,54.7,52.4,29.82,North,359,0.0,8.0,92,0.00,,,0.00,Wunderground v.1.15,2013-01-27 07:20:00,
2013-01-27 00:30:00,54.1,51.8,29.83,North,359,0.0,8.0,92,0.00,,,0.00,Wunderground v.1.15,2013-01-27 07:30:00,
2013-01-27 00:35:00,53.9,51.6,29.83,North,359,0.0,8.0,92,0.00,,,0.00,Wunderground v.1.15,2013-01-27 07:35:00,
2013-01-27 00:45:00,53.9,51.6,29.83,North,359,0.0,8.0,92,0.00,,,0.00,Wunderground v.1.15,2013-01-27 07:45:00,
2013-01-27 00:55:00,53.9,51.9,29.83,North,359,0.0,8.0,93,0.00,,,0.00,Wunderground v.1.15,2013-01-27 07:55:00,
2013-01-27 01:00:00,53.8,51.8,29.83,North,359,0.0,8.0,93,0.00,,,0.00,Wunderground v.1.15,2013-01-27 08:00:00,
2013-01-27 01:10:00,53.5,51.5,29.83,North,359,0.0,8.0,93,0.00,,,0.00,Wunderground v.1.15,2013-01-27 08:10:00,
2013-01-27 01:15:00,53.5,51.8,29.82,North,359,0.0,8.0,94,0.00,,,0.00,Wunderground v.1.15,2013-01-27 08:15:00,
2013-01-27 01:25:00,53.3,51.6,29.82,North,359,0.0,8.0,94,0.00,,,0.00,Wunderground v.1.15,2013-01-27 08:25:00,
2013-01-27 01:35:00,53.3,51.6,29.82,North,359,0.0,8.0,94,0.00,,,0.00,Wunderground v.1.15,2013-01-27 08:35:00,
2013-01-27 01:40:00,53.2,51.5,29.82,North,359,0.0,8.0,94,0.00,,,0.00,Wunderground v.1.15,2013-01-27 08:40:00,
2013-01-27 01:50:00,53.3,51.9,29.83,North,359,0.0,8.0,95,0.00,,,0.00,Wunderground v.1.15,2013-01-27 08:50:00,
2013-01-27 01:55:00,53.6,52.2,29.83,North,359,0.0,8.0,95,0.00,,,0.00,Wunderground v.1.15,2013-01-27 08:55:00,
2013-01-27 02:05:00,53.6,52.2,29.82,North,359,0.0,8.0,95,0.00,,,0.00,Wunderground v.1.15,2013-01-27 09:05:00,
2013-01-27 02:15:00,53.6,51.9,29.82,North,359,0.0,8.0,94,0.00,,,0.00,Wunderground v.1.15,2013-01-27 09:15:00,
2013-01-27 02:25:00,53.9,52.5,29.82,North,359,0.0,8.0,95,0.00,,,0.00,Wunderground v.1.15,2013-01-27 09:25:00,
2013-01-27 02:30:00,53.9,52.2,29.82,North,359,0.0,8.0,94,0.00,,,0.00,Wunderground v.1.15,2013-01-27 09:30:00,
2013-01-27 02:40:00,54.2,52.5,29.82,North,359,1.0,8.0,94,0.00,,,0.00,Wunderground v.1.15,2013-01-27 09:40:00,
2013-01-27 02:50:00,54.4,52.7,29.82,North,359,0.0,8.0,94,0.00,,,0.00,Wunderground v.1.15,2013-01-27 09:50:00,
2013-01-27 02:55:00,54.4,52.1,29.82,North,359,0.0,8.0,92,0.00,,,0.00,Wunderground v.1.15,2013-01-27 09:55:00,
2013-01-27 03:05:00,54.4,52.4,29.82,South,186,1.0,8.0,93,0.00,,,0.00,Wunderground v.1.15,2013-01-27 10:05:00,
2013-01-27 03:15:00,54.4,52.4,29.83,South,181,1.0,8.0,93,0.00,,,0.00,Wunderground v.1.15,2013-01-27 10:15:00,
2013-01-27 03:25:00,54.5,52.5,29.83,South,181,1.0,8.0,93,0.00,,,0.00,Wunderground v.1.15,2013-01-27 10:25:00,
2013-01-27 03:30:00,54.4,52.1,29.83,South,181,0.0,8.0,92,0.00,,,0.00,Wunderground v.1.15,2013-01-27 10:30:00,
2013-01-27 03:40:00,54.2,51.9,29.83,South,181,0.0,8.0,92,0.00,,,0.00,Wunderground v.1.15,2013-01-27 10:40:00,
2013-01-27 03:50:00,53.5,51.2,29.83,South,181,0.0,8.0,92,0.00,,,0.00,Wunderground v.1.15,2013-01-27 10:50:00,
2013-01-27 04:00:00,52.9,50.6,29.83,South,181,0.0,8.0,92,0.00,,,0.00,Wunderground v.1.15,2013-01-27 11:00:00,
2013-01-27 04:10:00,53.1,50.8,29.83,South,181,0.0,8.0,92,0.00,,,0.00,Wunderground v.1.15,2013-01-27 11:10:00,
2013-01-27 04:15:00,52.9,50.9,29.83,South,181,0.0,8.0,93,0.00,,,0.00,Wunderground v.1.15,2013-01-27 11:15:00,
2013-01-27 04:25:00,53.1,51.1,29.83,South,181,0.0,8.0,93,0.00,,,0.00,Wunderground v.1.15,2013-01-27 11:25:00,
2013-01-27 04:35:00,52.9,50.9,29.83,South,181,0.0,8.0,93,0.00,,,0.00,Wunderground v.1.15,2013-01-27 11:35:00,
2013-01-27 04:40:00,52.8,51.1,29.83,South,181,0.0,8.0,94,0.00,,,0.00,Wunderground v.1.15,2013-01-27 11:40:00,
2013-01-27 04:50:00,52.9,51.2,29.83,South,181,0.0,8.0,94,0.00,,,0.00,Wunderground v.1.15,2013-01-27 11:50:00,
2013-01-27 05:00:00,52.3,50.6,29.82,South,181,0.0,8.0,94,0.00,,,0.00,Wunderground v.1.15,2013-01-27 12:00:00,
2013-01-27 05:05:00,52.2,50.5,29.82,South,181,0.0,8.0,94,0.00,,,0.00,Wunderground v.1.15,2013-01-27 12:05:00,
2013-01-27 05:15:00,51.9,50.5,29.84,South,181,0.0,8.0,95,0.00,,,0.00,Wunderground v.1.15,2013-01-27 12:15:00,
2013-01-27 05:20:00,51.9,50.5,29.84,South,181,0.0,8.0,95,0.00,,,0.00,Wunderground v.1.15,2013-01-27 12:20:00,
2013-01-27 05:30:00,51.7,50.6,29.84,South,181,0.0,8.0,96,0.00,,,0.00,Wunderground v.1.15,2013-01-27 12:30:00,
2013-01-27 05:40:00,51.6,50.5,29.84,South,181,0.0,8.0,96,0.00,,,0.00,Wunderground v.1.15,2013-01-27 12:40:00,
2013-01-27 05:45:00,51.6,50.5,29.84,South,181,0.0,8.0,96,0.00,,,0.00,Wunderground v.1.15,2013-01-27 12:45:00,
2013-01-27 05:55:00,51.4,50.3,29.84,South,181,0.0,8.0,96,0.00,,,0.00,Wunderground v.1.15,2013-01-27 12:55:00,
2013-01-27 06:00:00,51.3,50.2,29.84,ESE,110,1.0,8.0,96,0.00,,,0.00,Wunderground v.1.15,2013-01-27 13:00:00,
2013-01-27 06:10:00,51.0,49.9,29.84,ESE,106,0.0,8.0,96,0.00,,,0.00,Wunderground v.1.15,2013-01-27 13:10:00,
2013-01-27 06:20:00,50.8,49.7,29.85,ESE,106,0.0,8.0,96,0.00,,,0.00,Wunderground v.1.15,2013-01-27 13:20:00,
2013-01-27 06:30:00,50.8,50.0,29.86,ESE,106,0.0,8.0,97,0.00,,,0.00,Wunderground v.1.15,2013-01-27 13:30:00,
2013-01-27 06:35:00,50.7,49.9,29.86,ESE,106,0.0,8.0,97,0.00,,,0.00,Wunderground v.1.15,2013-01-27 13:35:00,
2013-01-27 06:45:00,50.5,49.7,29.86,ESE,106,0.0,8.0,97,0.00,,,0.00,Wunderground v.1.15,2013-01-27 13:45:00,
2013-01-27 06:55:00,50.4,49.6,29.86,ESE,106,1.0,8.0,97,0.00,,,0.00,Wunderground v.1.15,2013-01-27 13:55:00,
2013-01-27 07:05:00,50.1,49.3,29.87,ESE,106,0.0,8.0,97,0.00,,,0.00,Wunderground v.1.15,2013-01-27 14:05:00,
2013-01-27 07:10:00,50.1,49.3,29.87,ESE,106,0.0,8.0,97,0.00,,,0.00,Wunderground v.1.15,2013-01-27 14:10:00,
2013-01-27 07:20:00,50.4,49.6,29.87,SSE,155,0.0,8.0,97,0.00,,,0.00,Wunderground v.1.15,2013-01-27 14:20:00,
2013-01-27 07:30:00,50.4,49.6,29.87,SSE,157,0.0,8.0,97,0.00,,,0.00,Wunderground v.1.15,2013-01-27 14:30:00,
2013-01-27 07:35:00,50.7,49.6,29.87,SSE,157,1.0,8.0,96,0.00,,,0.00,Wunderground v.1.15,2013-01-27 14:35:00,
2013-01-27 07:45:00,50.8,49.7,29.87,SSE,161,1.0,8.0,96,0.00,,,0.00,Wunderground v.1.15,2013-01-27 14:45:00,
2013-01-27 07:55:00,51.1,49.7,29.87,SSE,162,0.0,8.0,95,0.00,,,0.01,Wunderground v.1.15,2013-01-27 14:55:00,
2013-01-27 08:00:00,51.4,49.7,29.88,SSE,162,0.0,8.0,94,0.00,,,0.01,Wunderground v.1.15,2013-01-27 15:00:00,
2013-01-27 08:10:00,52.2,50.2,29.88,SSW,192,1.0,8.0,93,0.00,,,0.01,Wunderground v.1.15,2013-01-27 15:10:00,
2013-01-27 08:20:00,53.1,50.8,29.87,South,191,1.0,1.0,92,0.00,,,0.01,Wunderground v.1.15,2013-01-27 15:20:00,
2013-01-27 08:30:00,54.1,50.6,29.88,South,189,1.0,8.0,88,0.00,,,0.01,Wunderground v.1.15,2013-01-27 15:30:00,
2013-01-27 08:35:00,55.0,50.6,29.88,South,189,0.0,8.0,85,0.00,,,0.01,Wunderground v.1.15,2013-01-27 15:35:00,
2013-01-27 08:45:00,56.2,51.1,29.87,SE,140,0.0,8.0,83,0.00,,,0.01,Wunderground v.1.15,2013-01-27 15:45:00,
2013-01-27 08:55:00,56.9,51.1,29.87,SE,136,1.0,8.0,81,0.00,,,0.01,Wunderground v.1.15,2013-01-27 15:55:00,
2013-01-27 09:00:00,56.9,50.5,29.87,SE,136,1.0,1.0,79,0.00,,,0.01,Wunderground v.1.15,2013-01-27 16:00:00,
2013-01-27 09:10:00,57.3,50.5,29.87,East,100,1.0,8.0,78,0.00,,,0.01,Wunderground v.1.15,2013-01-27 16:10:00,
2013-01-27 09:15:00,57.0,49.9,29.87,East,83,2.0,8.0,77,0.00,,,0.01,Wunderground v.1.15,2013-01-27 16:15:00,
2013-01-27 09:25:00,57.6,49.7,29.87,East,93,3.0,8.0,75,0.00,,,0.01,Wunderground v.1.15,2013-01-27 16:25:00,
2013-01-27 09:35:00,58.0,50.1,29.87,ESE,110,3.0,8.0,75,0.00,,,0.01,Wunderground v.1.15,2013-01-27 16:35:00,
2013-01-27 09:45:00,58.3,49.7,29.87,ESE,114,3.0,5.0,73,0.00,,,0.01,Wunderground v.1.15,2013-01-27 16:45:00,
2013-01-27 09:55:00,58.4,50.1,29.87,SSE,152,3.0,8.0,74,0.00,,,0.01,Wunderground v.1.15,2013-01-27 16:55:00,
2013-01-27 10:00:00,58.3,50.0,29.88,SE,145,2.0,8.0,74,0.00,,,0.01,Wunderground v.1.15,2013-01-27 17:00:00,
2013-01-27 10:10:00,58.4,50.1,29.88,SE,141,3.0,3.0,74,0.00,,,0.01,Wunderground v.1.15,2013-01-27 17:10:00,
2013-01-27 10:20:00,59.0,50.0,29.88,ESE,119,2.0,8.0,72,0.00,,,0.01,Wunderground v.1.15,2013-01-27 17:20:00,
2013-01-27 10:25:00,59.2,50.2,29.88,ESE,114,3.0,8.0,72,0.00,,,0.01,Wunderground v.1.15,2013-01-27 17:25:00,
2013-01-27 10:35:00,59.2,49.8,29.88,SE,143,4.0,5.0,71,0.00,,,0.01,Wunderground v.1.15,2013-01-27 17:35:00,
2013-01-27 10:40:00,59.0,49.6,29.88,South,174,4.0,4.0,71,0.00,,,0.01,Wunderground v.1.15,2013-01-27 17:40:00,
2013-01-27 10:50:00,59.0,50.4,29.87,SE,145,3.0,8.0,73,0.00,,,0.01,Wunderground v.1.15,2013-01-27 17:50:00,
2013-01-27 11:00:00,59.3,49.9,29.87,SE,136,5.0,5.0,71,0.00,,,0.01,Wunderground v.1.15,2013-01-27 18:00:00,
2013-01-27 11:05:00,59.9,49.7,29.87,SSE,148,4.0,6.0,69,0.00,,,0.01,Wunderground v.1.15,2013-01-27 18:05:00,
2013-01-27 11:15:00,61.2,50.2,29.86,ESE,113,4.0,8.0,67,0.00,,,0.01,Wunderground v.1.15,2013-01-27 18:15:00,
2013-01-27 11:20:00,62.1,49.8,29.86,South,179,4.0,8.0,64,0.00,,,0.01,Wunderground v.1.15,2013-01-27 18:20:00,
2013-01-27 11:30:00,62.7,49.1,29.86,SE,141,4.0,8.0,61,0.00,,,0.01,Wunderground v.1.15,2013-01-27 18:30:00,
2013-01-27 11:40:00,63.9,49.3,29.86,SSE,164,5.0,5.0,59,0.00,,,0.01,Wunderground v.1.15,2013-01-27 18:40:00,
2013-01-27 11:50:00,62.9,49.7,29.85,SE,128,4.0,8.0,62,0.00,,,0.01,Wunderground v.1.15,2013-01-27 18:50:00,
2013-01-27 11:55:00,63.5,48.9,29.85,SE,126,5.0,8.0,59,0.00,,,0.01,Wunderground v.1.15,2013-01-27 18:55:00,
2013-01-27 12:05:00,63.9,49.3,29.84,SSE,164,3.0,5.0,59,0.00,,,0.01,Wunderground v.1.15,2013-01-27 19:05:00,
2013-01-27 12:15:00,63.2,48.6,29.84,South,191,2.0,8.0,59,0.00,,,0.01,Wunderground v.1.15,2013-01-27 19:15:00,
2013-01-27 12:20:00,63.1,49.0,29.84,South,184,2.0,2.0,60,0.00,,,0.01,Wunderground v.1.15,2013-01-27 19:20:00,
2013-01-27 12:30:00,63.1,49.4,29.83,SE,128,1.0,8.0,61,0.00,,,0.01,Wunderground v.1.15,2013-01-27 19:30:00,
2013-01-27 12:40:00,63.4,49.3,29.83,South,175,2.0,8.0,60,0.00,,,0.01,Wunderground v.1.15,2013-01-27 19:40:00,
2013-01-27 12:45:00,64.5,48.9,29.82,SE,145,1.0,8.0,57,0.00,,,0.01,Wunderground v.1.15,2013-01-27 19:45:00,
2013-01-27 12:55:00,65.3,48.2,29.82,SE,136,1.0,8.0,54,0.00,,,0.01,Wunderground v.1.15,2013-01-27 19:55:00,
2013-01-27 13:05:00,64.5,47.5,29.81,ESE,113,1.0,8.0,54,0.00,,,0.01,Wunderground v.1.15,2013-01-27 20:05:00,
2013-01-27 13:10:00,64.2,47.7,29.81,SE,126,2.0,2.0,55,0.00,,,0.01,Wunderground v.1.15,2013-01-27 20:10:00,
2013-01-27 13:20:00,64.2,47.2,29.81,SE,130,2.0,2.0,54,0.00,,,0.01,Wunderground v.1.15,2013-01-27 20:20:00,
2013-01-27 13:25:00,64.5,48.0,29.81,SE,141,2.0,8.0,55,0.00,,,0.01,Wunderground v.1.15,2013-01-27 20:25:00,
2013-01-27 13:35:00,64.7,46.7,29.80,South,178,2.0,8.0,52,0.00,,,0.01,Wunderground v.1.15,2013-01-27 20:35:00,
2013-01-27 13:45:00,64.8,46.8,29.80,South,175,1.0,8.0,52,0.00,,,0.01,Wunderground v.1.15,2013-01-27 20:45:00,
2013-01-27 13:50:00,64.8,47.3,29.80,South,176,1.0,1.0,53,0.00,,,0.01,Wunderground v.1.15,2013-01-27 20:50:00,
2013-01-27 14:00:00,64.7,46.7,29.79,South,179,1.0,1.0,52,0.00,,,0.01,Wunderground v.1.15,2013-01-27 21:00:00,
2013-01-27 14:05:00,64.7,46.7,29.79,South,179,0.0,8.0,52,0.00,,,0.01,Wunderground v.1.15,2013-01-27 21:05:00,
2013-01-27 14:15:00,64.8,46.2,29.79,SE,130,0.0,8.0,51,0.00,,,0.01,Wunderground v.1.15,2013-01-27 21:15:00,
2013-01-27 14:25:00,64.8,46.2,29.79,SE,130,0.0,8.0,51,0.00,,,0.01,Wunderground v.1.15,2013-01-27 21:25:00,
2013-01-27 14:30:00,64.8,46.2,29.79,SE,130,0.0,8.0,51,0.00,,,0.01,Wunderground v.1.15,2013-01-27 21:30:00,
2013-01-27 14:40:00,65.2,46.6,29.79,SE,130,0.0,8.0,51,0.00,,,0.01,Wunderground v.1.15,2013-01-27 21:40:00,
2013-01-27 14:45:00,65.3,46.2,29.78,SE,130,0.0,8.0,50,0.00,,,0.01,Wunderground v.1.15,2013-01-27 21:45:00,
2013-01-27 14:55:00,65.0,46.4,29.78,SE,130,0.0,8.0,51,0.00,,,0.01,Wunderground v.1.15,2013-01-27 21:55:00,
2013-01-27 15:05:00,65.3,46.2,29.78,SE,130,0.0,8.0,50,0.00,,,0.01,Wunderground v.1.15,2013-01-27 22:05:00,
2013-01-27 15:10:00,65.3,47.7,29.78,NNW,330,1.0,8.0,53,0.00,,,0.01,Wunderground v.1.15,2013-01-27 22:10:00,
2013-01-27 15:20:00,64.7,48.2,29.78,NW,311,2.0,8.0,55,0.00,,,0.01,Wunderground v.1.15,2013-01-27 22:20:00,
2013-01-27 15:25:00,64.5,48.0,29.78,NW,323,2.0,8.0,55,0.00,,,0.01,Wunderground v.1.15,2013-01-27 22:25:00,
2013-01-27 15:35:00,65.0,47.9,29.78,NW,313,2.0,8.0,54,0.00,,,0.01,Wunderground v.1.15,2013-01-27 22:35:00,
2013-01-27 15:45:00,65.6,46.5,29.78,WNW,296,2.0,5.0,50,0.00,,,0.01,Wunderground v.1.15,2013-01-27 22:45:00,
2013-01-27 15:55:00,65.3,45.1,29.78,WSW,250,5.0,8.0,48,0.00,,,0.01,Wunderground v.1.15,2013-01-27 22:55:00,
2013-01-27 16:00:00,65.2,44.5,29.77,WSW,241,6.0,8.0,47,0.00,,,0.01,Wunderground v.1.15,2013-01-27 23:00:00,
2013-01-27 16:10:00,65.2,44.5,29.77,WSW,246,4.0,4.0,47,0.00,,,0.01,Wunderground v.1.15,2013-01-27 23:10:00,
2013-01-27 16:20:00,65.2,44.5,29.78,SW,223,4.0,8.0,47,0.00,,,0.01,Wunderground v.1.15,2013-01-27 23:20:00,
2013-01-27 16:30:00,64.8,44.6,29.77,SSW,200,4.0,8.0,48,0.00,,,0.01,Wunderground v.1.15,2013-01-27 23:30:00,
2013-01-27 16:35:00,64.8,44.6,29.77,SW,219,5.0,8.0,48,0.00,,,0.01,Wunderground v.1.15,2013-01-27 23:35:00,
2013-01-27 16:45:00,64.7,44.0,29.77,SW,219,4.0,8.0,47,0.00,,,0.01,Wunderground v.1.15,2013-01-27 23:45:00,
2013-01-27 16:55:00,64.7,45.6,29.77,SW,236,3.0,8.0,50,0.00,,,0.01,Wunderground v.1.15,2013-01-27 23:55:00,
2013-01-27 17:05:00,64.7,45.1,29.76,SW,219,2.0,5.0,49,0.00,,,0.01,Wunderground v.1.15,2013-01-28 00:05:00,
2013-01-27 17:10:00,64.7,44.5,29.76,SW,222,4.0,8.0,48,0.00,,,0.01,Wunderground v.1.15,2013-01-28 00:10:00,
2013-01-27 17:20:00,64.7,45.6,29.77,SSW,210,3.0,3.0,50,0.00,,,0.01,Wunderground v.1.15,2013-01-28 00:20:00,
2013-01-27 17:30:00,64.7,46.1,29.77,SSW,213,2.0,2.0,51,0.00,,,0.01,Wunderground v.1.15,2013-01-28 00:30:00,
2013-01-27 17:35:00,64.5,46.5,29.77,SSW,213,1.0,8.0,52,0.00,,,0.01,Wunderground v.1.15,2013-01-28 00:35:00,
2013-01-27 17:45:00,63.7,46.7,29.78,SSW,208,3.0,8.0,54,0.00,,,0.01,Wunderground v.1.15,2013-01-28 00:45:00,
2013-01-27 17:55:00,63.4,46.0,29.78,SW,222,4.0,8.0,53,0.00,,,0.01,Wunderground v.1.15,2013-01-28 00:55:00,
2013-01-27 18:05:00,62.9,46.5,29.78,SW,232,2.0,8.0,55,0.00,,,0.01,Wunderground v.1.15,2013-01-28 01:05:00,
2013-01-27 18:10:00,62.9,46.5,29.78,SW,222,3.0,3.0,55,0.00,,,0.01,Wunderground v.1.15,2013-01-28 01:10:00,
2013-01-27 18:20:00,62.6,45.7,29.78,SW,223,2.0,2.0,54,0.00,,,0.01,Wunderground v.1.15,2013-01-28 01:20:00,
2013-01-27 18:30:00,62.4,45.5,29.79,SW,222,2.0,8.0,54,0.00,,,0.01,Wunderground v.1.15,2013-01-28 01:30:00,
2013-01-27 18:35:00,62.3,45.9,29.79,SSW,209,2.0,8.0,55,0.00,,,0.01,Wunderground v.1.15,2013-01-28 01:35:00,
2013-01-27 18:45:00,62.1,45.7,29.79,SSW,213,2.0,8.0,55,0.00,,,0.01,Wunderground v.1.15,2013-01-28 01:45:00,
2013-01-27 18:55:00,62.0,46.1,29.79,SW,219,2.0,6.0,56,0.00,,,0.01,Wunderground v.1.15,2013-01-28 01:55:00,
2013-01-27 19:00:00,62.0,46.1,29.79,SW,227,3.0,8.0,56,0.00,,,0.01,Wunderground v.1.15,2013-01-28 02:00:00,
2013-01-27 19:10:00,61.8,46.4,29.79,SSW,209,4.0,4.0,57,0.00,,,0.01,Wunderground v.1.15,2013-01-28 02:10:00,
2013-01-27 19:20:00,61.5,46.6,29.79,SW,217,3.0,3.0,58,0.00,,,0.01,Wunderground v.1.15,2013-01-28 02:20:00,
2013-01-27 19:25:00,61.3,46.8,29.79,SSW,208,3.0,8.0,59,0.00,,,0.01,Wunderground v.1.15,2013-01-28 02:25:00,
2013-01-27 19:34:00,61.2,47.2,29.79,SW,222,4.0,8.0,60,0.00,,,0.01,Wunderground v.1.15,2013-01-28 02:34:00,
2013-01-27 19:40:00,61.2,47.2,29.79,SW,223,4.0,8.0,60,0.00,,,0.01,Wunderground v.1.15,2013-01-28 02:40:00,
2013-01-27 19:45:00,60.9,47.8,29.79,SW,219,3.0,8.0,62,0.00,,,0.01,Wunderground v.1.15,2013-01-28 02:45:00,
2013-01-27 19:55:00,60.4,46.9,29.79,WSW,240,3.0,8.0,61,0.00,,,0.01,Wunderground v.1.15,2013-01-28 02:55:00,
2013-01-27 20:05:00,60.4,47.3,29.80,SSW,212,3.0,8.0,62,0.00,,,0.01,Wunderground v.1.15,2013-01-28 03:05:00,
2013-01-27 20:10:00,60.2,47.1,29.80,SW,226,3.0,8.0,62,0.00,,,0.01,Wunderground v.1.15,2013-01-28 03:10:00,
2013-01-27 20:20:00,59.9,46.8,29.79,SW,220,2.0,2.0,62,0.00,,,0.01,Wunderground v.1.15,2013-01-28 03:20:00,
2013-01-27 20:30:00,59.3,47.1,29.78,SW,222,0.0,8.0,64,0.00,,,0.01,Wunderground v.1.15,2013-01-28 03:30:00,
2013-01-27 20:40:00,59.0,47.2,29.78,SW,222,1.0,8.0,65,0.00,,,0.01,Wunderground v.1.15,2013-01-28 03:40:00,
2013-01-27 20:50:00,58.6,47.3,29.78,SW,222,0.0,8.0,66,0.00,,,0.01,Wunderground v.1.15,2013-01-28 03:50:00,
2013-01-27 20:55:00,58.4,47.1,29.78,SW,222,0.0,8.0,66,0.00,,,0.01,Wunderground v.1.15,2013-01-28 03:55:00,
2013-01-27 21:05:00,58.7,47.0,29.79,SW,222,1.0,8.0,65,0.00,,,0.01,Wunderground v.1.15,2013-01-28 04:05:00,
2013-01-27 21:15:00,59.3,47.1,29.78,SW,216,4.0,4.0,64,0.00,,,0.01,Wunderground v.1.15,2013-01-28 04:15:00,
2013-01-27 21:25:00,59.5,47.7,29.78,SW,216,2.0,8.0,65,0.00,,,0.01,Wunderground v.1.15,2013-01-28 04:25:00,
2013-01-27 21:35:00,59.2,48.2,29.78,SW,217,1.0,8.0,67,0.00,,,0.01,Wunderground v.1.15,2013-01-28 04:35:00,
2013-01-27 21:40:00,59.0,47.2,29.78,SW,220,1.0,1.0,65,0.00,,,0.01,Wunderground v.1.15,2013-01-28 04:40:00,
2013-01-27 21:50:00,59.2,47.8,29.78,SSW,210,2.0,8.0,66,0.00,,,0.01,Wunderground v.1.15,2013-01-28 04:50:00,
2013-01-27 22:04:00,59.3,47.9,29.77,South,189,1.0,8.0,66,0.00,,,0.01,Wunderground v.1.15,2013-01-28 05:04:00,
2013-01-27 22:10:00,59.2,47.8,29.77,South,189,0.0,8.0,66,0.00,,,0.01,Wunderground v.1.15,2013-01-28 05:10:00,
2013-01-27 22:15:00,58.9,48.0,29.77,South,189,0.0,8.0,67,0.00,,,0.01,Wunderground v.1.15,2013-01-28 05:15:00,
2013-01-27 22:20:00,58.7,48.2,29.77,South,189,0.0,8.0,68,0.00,,,0.01,Wunderground v.1.15,2013-01-28 05:20:00,
2013-01-27 22:25:00,58.4,47.9,29.77,South,189,0.0,8.0,68,0.00,,,0.01,Wunderground v.1.15,2013-01-28 05:25:00,
2013-01-27 22:35:00,58.0,48.3,29.79,South,189,0.0,8.0,70,0.00,,,0.01,Wunderground v.1.15,2013-01-28 05:35:00,
2013-01-27 22:45:00,57.6,48.6,29.79,South,189,0.0,8.0,72,0.00,,,0.01,Wunderground v.1.15,2013-01-28 05:45:00,
2013-01-27 22:55:00,57.3,48.3,29.79,South,189,0.0,8.0,72,0.00,,,0.01,Wunderground v.1.15,2013-01-28 05:55:00,
2013-01-27 23:05:00,57.0,48.1,29.79,South,189,0.0,8.0,72,0.00,,,0.01,Wunderground v.1.15,2013-01-28 06:05:00,
2013-01-27 23:15:00,56.9,48.3,29.78,South,189,0.0,8.0,73,0.00,,,0.01,Wunderground v.1.15,2013-01-28 06:15:00,
2013-01-27 23:25:00,56.5,48.3,29.78,South,189,0.0,8.0,74,0.00,,,0.01,Wunderground v.1.15,2013-01-28 06:25:00,
2013-01-27 23:30:00,56.3,48.5,29.78,South,189,0.0,8.0,75,0.00,,,0.01,Wunderground v.1.15,2013-01-28 06:30:00,
2013-01-27 23:40:00,56.0,48.5,29.78,South,189,0.0,8.0,76,0.00,,,0.01,Wunderground v.1.15,2013-01-28 06:40:00,
2013-01-27 23:50:00,56.0,48.5,29.78,South,189,0.0,8.0,76,0.00,,,0.01,Wunderground v.1.15,2013-01-28 06:50:00,
2013-01-27 23:55:00,56.5,48.7,29.78,SSE,150,0.0,8.0,75,0.00,,,0.01,Wunderground v.1.15,2013-01-28 06:55:00,